Retour au catalogue

DELTA 2 R/B(1)

ActifLEO
NORAD 25359·ROCKET BODY·🇺🇸 United States

Lancé Jun 10, 1998 depuis Cape Canaveral Space Force Station

Loading…

Prochains Passages (prochaines 24 heures)

TLE

FraisSource: Space-Track

Époque: Sep 14, 2026, 23:04 UTC

1 25359U 98035B   26257.96112226  .00000110  00000-0  16716-4 0  9997
2 25359  26.3850 180.2034 0512995 327.4834 104.1305 12.94621208338294

Suivez DELTA 2 R/B(1) en temps réel avec AllMySat

Download on the App Store